Groton, South Dakota, United States (57445)
Lat: 45.45N, Lon: 98.1W
Wx Zone: SDZ006
Local Info
Past Weather Observations for Thursday, July 28, 2016

NOTE: This archive is for the closest National Weather Service station to Groton. Information may differ from the station used for current weather conditions.

Click here for Long-term Archive

Time Weather Temperature Dewpoint Humidity Pressure Winds Precip Visibility
23:53
Overcast
66°F / 19°C 59°F / 15°C 78% 30.09 in
(1019 mb)
SSE 4.6 mph
(SSE 7 kph)
- 10SM
22:53
Overcast
64°F / 18°C 61°F / 16°C 88% 30.09 in
(1019 mb)
Calm - 10SM
21:53
Clear
64°F / 18°C 61°F / 16°C 88% 30.09 in
(1019 mb)
Calm - 10SM
20:53
Clear
66°F / 19°C 61°F / 16°C 83% 30.06 in
(1018 mb)
ESE 3.5 mph
(ESE 6 kph)
- 10SM
19:53
Clear
72°F / 22°C 63°F / 17°C 73% 30.06 in
(1018 mb)
ENE 3.5 mph
(ENE 6 kph)
- 10SM
18:53
Clear
77°F / 25°C 59°F / 15°C 54% 30.06 in
(1018 mb)
E 4.6 mph
(E 7 kph)
- 10SM
17:53
Clear
79°F / 26°C 57°F / 14°C 48% 30.06 in
(1018 mb)
E 3.5 mph
(E 6 kph)
- 10SM
16:53
Overcast
77°F / 25°C 57°F / 14°C 51% 30.06 in
(1018 mb)
E 3.5 mph
(E 6 kph)
- 10SM
15:53
Overcast
79°F / 26°C 61°F / 16°C 54% 30.06 in
(1018 mb)
ENE 4.6 mph
(ENE 7 kph)
- 10SM
14:53
Partly Cloudy
75°F / 24°C 63°F / 17°C 65% 30.06 in
(1018 mb)
E 6.9 mph
(E 11 kph)
- 10SM
13:53
Partly Cloudy
79°F / 26°C 63°F / 17°C 58% 30.06 in
(1018 mb)
ENE 8.1 mph
(ENE 13 kph)
- 10SM
12:53
Partly Cloudy
75°F / 24°C 63°F / 17°C 65% 30.09 in
(1019 mb)
NNE 4.6 mph
(NNE 7 kph)
- 10SM
12:48
Partly Cloudy
75°F / 24°C 63°F / 17°C 65% 30.09 in
(1019 mb)
Variable 3.5 mph
(Variable 6 kph)
- 10SM
12:30
Mostly Cloudy
72°F / 22°C 63°F / 17°C 73% 30.12 in
(1020 mb)
Calm - 10SM
12:21
Partly Cloudy
73°F / 23°C 63°F / 17°C 69% 30.12 in
(1020 mb)
Calm - 10SM
11:53
Mostly Cloudy
73°F / 23°C 63°F / 17°C 69% 30.09 in
(1019 mb)
S 5.8 mph
(S 9 kph)
- 10SM
10:53
Overcast
70°F / 21°C 63°F / 17°C 78% 30.09 in
(1019 mb)
NE 5.8 mph
(NE 9 kph)
- 10SM
10:44
Overcast
68°F / 20°C 61°F / 16°C 78% 30.09 in
(1019 mb)
Variable 4.6 mph
(Variable 7 kph)
- 10SM
10:15
Mostly Cloudy
66°F / 19°C 61°F / 16°C 83% 30.09 in
(1019 mb)
NE 8.1 mph
(NE 13 kph)
- 10SM
09:53
Partly Cloudy
66°F / 19°C 61°F / 16°C 83% 30.09 in
(1019 mb)
NNE 5.8 mph
(NNE 9 kph)
- 10SM
08:53
Mostly Cloudy
64°F / 18°C 59°F / 15°C 83% 30.12 in
(1020 mb)
N 6.9 mph
(N 11 kph)
- 10SM
07:53
Clear
63°F / 17°C 57°F / 14°C 83% 30.12 in
(1020 mb)
N 9.2 mph
(N 15 kph)
- 10SM
06:53
Mostly Cloudy
63°F / 17°C 57°F / 14°C 83% 30.12 in
(1020 mb)
N 8.1 mph
(N 13 kph)
- 10SM
05:53
Partly Cloudy
61°F / 16°C 57°F / 14°C 88% 30.09 in
(1019 mb)
N 4.6 mph
(N 7 kph)
- 10SM
04:53
Clear
61°F / 16°C 57°F / 14°C 88% 30.09 in
(1019 mb)
NW 6.9 mph
(NW 11 kph)
- 10SM
03:53
Clear
61°F / 16°C 57°F / 14°C 88% 30.06 in
(1018 mb)
N 6.9 mph
(N 11 kph)
- 10SM
02:53
Partly Cloudy
63°F / 17°C 57°F / 14°C 83% 30.09 in
(1019 mb)
N 5.8 mph
(N 9 kph)
- 10SM
01:53
Mostly Cloudy
63°F / 17°C 59°F / 15°C 88% 30.09 in
(1019 mb)
N 6.9 mph
(N 11 kph)
0.00 in
(0.00 mm)
10SM
00:53
Overcast
Light Rain
64°F / 18°C 59°F / 15°C 83% 30.09 in
(1019 mb)
N 4.6 mph
(N 7 kph)
0.00 in
(0.00 mm)
10SM
Time Weather Temperature Dewpoint Humidity Pressure Winds Precip Visibility


Weather for websites

WeatherForYou.com, LLC is not responsible for any damages or problems caused by this service. Current weather conditions are obtained from the closest station including government and personal stations which may have varying degrees of accuracy. Weather forecasts are derived from the NOAA NDFD. Like all things, this site belongs to Jesus Christ... He just trusts us to maintain it. If you have any questions or comments email webmaster@weatherforyou.com

Copyright © 2016, WeatherForYou.com LLC. All rights reserved.